DAL1387 KMIA-KATL

Flight info

Callsign DAL1387
Flight time 1h 31m
Altitude 36000
Route FLMGO2 STYMY Q77 MJAMS/N0463F350 Q77 SHRKS/N0464F360 LAIRI LARZZ JJEDI4
Aircraft B739/M-SDE2E3FGHIRWXY/LB1

Departure

Time 2026-05-06 19:09
Airport Miami International Airport (KMIA)

Arrival

Time 2026-05-06 20:40
Airport Hartsfield Jackson Atlanta International Airport (KATL)
Time Latitude Longitude Altitude Speed Heading
2026-05-06 18:48 25.79178 -80.27707 17 ft 0 kts 102°
2026-05-06 18:57 25.79182 -80.27724 17 ft 4 kts 102°
2026-05-06 18:57 25.79187 -80.27751 19 ft 4 kts 127°
2026-05-06 18:58 25.79207 -80.27761 18 ft 3 kts 183°
2026-05-06 18:58 25.79229 -80.27759 18 ft 3 kts 185°
2026-05-06 18:58 25.79233 -80.27759 16 ft 0 kts 185°
2026-05-06 19:00 25.79230 -80.27759 15 ft 2 kts 185°
2026-05-06 19:00 25.79193 -80.27765 15 ft 9 kts 190°
2026-05-06 19:00 25.79110 -80.27777 15 ft 15 kts 189°
2026-05-06 19:01 25.78999 -80.27823 15 ft 17 kts 204°
2026-05-06 19:01 25.78928 -80.27899 16 ft 10 kts 265°
2026-05-06 19:01 25.78956 -80.27966 16 ft 12 kts 298°
2026-05-06 19:01 25.79009 -80.28071 16 ft 18 kts 299°
2026-05-06 19:02 25.79068 -80.28186 16 ft 16 kts 299°
2026-05-06 19:02 25.79125 -80.28289 15 ft 15 kts 302°
2026-05-06 19:02 25.79178 -80.28382 15 ft 14 kts 313°
2026-05-06 19:02 25.79240 -80.28454 16 ft 14 kts 300°
2026-05-06 19:03 25.79302 -80.28574 15 ft 22 kts 298°
2026-05-06 19:03 25.79390 -80.28746 15 ft 24 kts 300°
2026-05-06 19:03 25.79471 -80.28904 15 ft 23 kts 299°
2026-05-06 19:03 25.79547 -80.29053 15 ft 22 kts 300°
2026-05-06 19:04 25.79619 -80.29193 15 ft 20 kts 300°
2026-05-06 19:04 25.79685 -80.29324 15 ft 19 kts 300°
2026-05-06 19:04 25.79747 -80.29445 15 ft 17 kts 300°
2026-05-06 19:04 25.79804 -80.29558 16 ft 16 kts 299°
2026-05-06 19:05 25.79861 -80.29666 15 ft 17 kts 300°
2026-05-06 19:05 25.79912 -80.29780 14 ft 16 kts 294°
2026-05-06 19:05 25.79956 -80.29888 14 ft 15 kts 293°
2026-05-06 19:05 25.79975 -80.29956 13 ft 0 kts 286°
2026-05-06 19:07 25.79985 -80.29995 13 ft 10 kts 286°
2026-05-06 19:07 25.80010 -80.30094 16 ft 15 kts 287°
2026-05-06 19:08 25.80070 -80.30107 14 ft 6 kts 63°
2026-05-06 19:08 25.80072 -80.30089 14 ft 0 kts 85°
2026-05-06 19:08 25.80073 -80.30087 14 ft 2 kts 85°
2026-05-06 19:08 25.80082 -80.29866 13 ft 72 kts 87°
2026-05-06 19:09 25.80117 -80.29002 20 ft 148 kts 88°
2026-05-06 19:09 25.80140 -80.27768 543 ft 170 kts 91°
2026-05-06 19:09 25.80179 -80.26428 1492 ft 174 kts 88°
2026-05-06 19:09 25.80250 -80.25079 2339 ft 175 kts 88°
2026-05-06 19:10 25.80322 -80.23681 2580 ft 191 kts 87°
2026-05-06 19:10 25.80394 -80.22138 2721 ft 210 kts 88°
2026-05-06 19:10 25.80466 -80.20422 2859 ft 235 kts 88°
2026-05-06 19:10 25.80548 -80.18521 3165 ft 257 kts 85°
2026-05-06 19:11 25.81148 -80.16627 3720 ft 268 kts 52°
2026-05-06 19:11 25.82650 -80.15413 4383 ft 275 kts 18°
2026-05-06 19:11 25.84549 -80.15073 5080 ft 279 kts
2026-05-06 19:11 25.86495 -80.15137 5850 ft 281 kts 356°
2026-05-06 19:12 25.88450 -80.15309 6606 ft 282 kts 352°
2026-05-06 19:12 25.90346 -80.15874 7308 ft 283 kts 338°
2026-05-06 19:12 25.92167 -80.16710 8028 ft 283 kts 340°
2026-05-06 19:12 25.93996 -80.17423 8784 ft 282 kts 342°
2026-05-06 19:13 25.95873 -80.18080 9436 ft 284 kts 343°
2026-05-06 19:13 25.97772 -80.18739 10076 ft 287 kts 340°
2026-05-06 19:13 25.99557 -80.19763 10520 ft 297 kts 327°
2026-05-06 19:13 26.01207 -80.21275 10630 ft 318 kts 319°
2026-05-06 19:14 26.02892 -80.22982 10788 ft 335 kts 319°
2026-05-06 19:14 26.04639 -80.24744 11215 ft 342 kts 320°
2026-05-06 19:14 26.06414 -80.26524 11780 ft 344 kts 320°
2026-05-06 19:14 26.08204 -80.28312 12347 ft 347 kts 320°
2026-05-06 19:15 26.10011 -80.30112 12919 ft 349 kts 321°
2026-05-06 19:15 26.11827 -80.31915 13490 ft 351 kts 321°
2026-05-06 19:15 26.13662 -80.33734 14027 ft 354 kts 321°
2026-05-06 19:15 26.15504 -80.35561 14531 ft 356 kts 321°
2026-05-06 19:16 26.17356 -80.37402 15057 ft 357 kts 321°
2026-05-06 19:16 26.19188 -80.39226 15554 ft 359 kts 321°
2026-05-06 19:16 26.21078 -80.41108 16066 ft 361 kts 321°
2026-05-06 19:16 26.23053 -80.42835 16558 ft 361 kts 329°
2026-05-06 19:17 26.25236 -80.44135 17055 ft 361 kts 335°
2026-05-06 19:17 26.27514 -80.45338 17565 ft 363 kts 335°
2026-05-06 19:17 26.29805 -80.46549 18051 ft 366 kts 335°
2026-05-06 19:17 26.32113 -80.47770 18497 ft 368 kts 335°
2026-05-06 19:18 26.34430 -80.48998 18894 ft 370 kts 335°
2026-05-06 19:18 26.36758 -80.50236 19290 ft 372 kts 334°
2026-05-06 19:18 26.39093 -80.51483 19691 ft 373 kts 334°
2026-05-06 19:18 26.41443 -80.52739 20089 ft 375 kts 334°
2026-05-06 19:19 26.43802 -80.53996 20486 ft 377 kts 334°
2026-05-06 19:19 26.46174 -80.55260 20847 ft 379 kts 334°
2026-05-06 19:19 26.48585 -80.56470 21235 ft 381 kts 339°
2026-05-06 19:19 26.51134 -80.57322 21611 ft 383 kts 343°
2026-05-06 19:20 26.53705 -80.58127 22001 ft 385 kts 342°
2026-05-06 19:20 26.56285 -80.58943 22390 ft 386 kts 342°
2026-05-06 19:20 26.58874 -80.59766 22780 ft 388 kts 342°
2026-05-06 19:20 26.61442 -80.60584 23162 ft 389 kts 342°
2026-05-06 19:21 26.64054 -80.61416 23531 ft 391 kts 342°
2026-05-06 19:21 26.66674 -80.62250 23860 ft 393 kts 342°
2026-05-06 19:21 26.69316 -80.63090 24154 ft 394 kts 341°
2026-05-06 19:21 26.71960 -80.63931 24450 ft 396 kts 341°
2026-05-06 19:22 26.74617 -80.64779 24745 ft 398 kts 341°
2026-05-06 19:22 26.77289 -80.65631 25044 ft 400 kts 341°
2026-05-06 19:22 26.79964 -80.66484 25341 ft 402 kts 341°
2026-05-06 19:22 26.82661 -80.67343 25642 ft 403 kts 341°
2026-05-06 19:23 26.85371 -80.68207 25940 ft 405 kts 341°
2026-05-06 19:23 26.88084 -80.69074 26259 ft 407 kts 341°
2026-05-06 19:23 26.90811 -80.69945 26567 ft 408 kts 341°
2026-05-06 19:23 26.93535 -80.70865 26878 ft 409 kts 339°
2026-05-06 19:24 26.96244 -80.71862 27176 ft 410 kts 338°
2026-05-06 19:24 26.98947 -80.72905 27469 ft 412 kts 338°
2026-05-06 19:24 27.01656 -80.73968 27757 ft 414 kts 337°
2026-05-06 19:24 27.04350 -80.75021 28037 ft 416 kts 338°
2026-05-06 19:25 27.07087 -80.76080 28316 ft 417 kts 338°
2026-05-06 19:25 27.09846 -80.77139 28587 ft 419 kts 338°
2026-05-06 19:25 27.12620 -80.78193 28859 ft 421 kts 338°
2026-05-06 19:25 27.15402 -80.79242 29114 ft 423 kts 338°
2026-05-06 19:26 27.18199 -80.80296 29382 ft 425 kts 338°
2026-05-06 19:26 27.21005 -80.81353 29671 ft 426 kts 338°
2026-05-06 19:26 27.23809 -80.82415 29935 ft 427 kts 337°
2026-05-06 19:26 27.26634 -80.83489 30173 ft 429 kts 337°
2026-05-06 19:27 27.29460 -80.84564 30390 ft 430 kts 337°
2026-05-06 19:27 27.32299 -80.85646 30614 ft 431 kts 337°
2026-05-06 19:27 27.35136 -80.86756 30881 ft 431 kts 336°
2026-05-06 19:27 27.37953 -80.87902 31214 ft 429 kts 336°
2026-05-06 19:28 27.40748 -80.89063 31552 ft 428 kts 335°
2026-05-06 19:28 27.43539 -80.90232 31892 ft 427 kts 335°
2026-05-06 19:28 27.46325 -80.91401 32201 ft 427 kts 335°
2026-05-06 19:28 27.49111 -80.92566 32476 ft 427 kts 335°
2026-05-06 19:29 27.51903 -80.93722 32792 ft 426 kts 335°
2026-05-06 19:29 27.54687 -80.94869 33134 ft 426 kts 335°
2026-05-06 19:29 27.57461 -80.96009 33470 ft 424 kts 335°
2026-05-06 19:29 27.60233 -80.97147 33802 ft 423 kts 335°
2026-05-06 19:30 27.63001 -80.98283 34121 ft 423 kts 335°
2026-05-06 19:30 27.65766 -80.99419 34413 ft 422 kts 335°
2026-05-06 19:30 27.68483 -81.00539 34679 ft 420 kts 335°
2026-05-06 19:30 27.71224 -81.01673 34954 ft 419 kts 335°
2026-05-06 19:31 27.73963 -81.02812 35227 ft 418 kts 335°
2026-05-06 19:31 27.76696 -81.03951 35494 ft 418 kts 335°
2026-05-06 19:31 27.82131 -81.06202 36022 ft 415 kts 334°
2026-05-06 19:32 27.86607 -81.08052 36070 ft 410 kts 334°
2026-05-06 19:32 27.91955 -81.10267 36078 ft 408 kts 334°
2026-05-06 19:33 27.97293 -81.12486 36080 ft 408 kts 334°
2026-05-06 19:33 28.02624 -81.14710 36081 ft 408 kts 334°
2026-05-06 19:34 28.07866 -81.17127 36080 ft 405 kts 331°
2026-05-06 19:34 28.12937 -81.19809 36107 ft 404 kts 329°
2026-05-06 19:35 28.18019 -81.22524 36114 ft 403 kts 330°
2026-05-06 19:35 28.23113 -81.25178 36111 ft 403 kts 330°
2026-05-06 19:36 28.28226 -81.27808 36102 ft 403 kts 330°
2026-05-06 19:36 28.33339 -81.30444 36084 ft 403 kts 330°
2026-05-06 19:37 28.38458 -81.33084 36086 ft 404 kts 330°
2026-05-06 19:37 28.43583 -81.35696 36101 ft 404 kts 330°
2026-05-06 19:38 28.48709 -81.38308 36092 ft 404 kts 330°
2026-05-06 19:38 28.53835 -81.40922 36101 ft 403 kts 330°
2026-05-06 19:39 28.58955 -81.43542 36100 ft 403 kts 330°
2026-05-06 19:39 28.64067 -81.46175 36098 ft 403 kts 330°
2026-05-06 19:40 28.69160 -81.48792 36111 ft 403 kts 330°
2026-05-06 19:40 28.74277 -81.51415 36115 ft 403 kts 330°
2026-05-06 19:41 28.79381 -81.54039 36095 ft 402 kts 330°
2026-05-06 19:41 28.84481 -81.56671 36095 ft 402 kts 330°
2026-05-06 19:42 28.89571 -81.59302 36091 ft 402 kts 330°
2026-05-06 19:42 28.94975 -81.61146 36085 ft 416 kts 347°
2026-05-06 19:43 29.00761 -81.61668 36100 ft 417 kts 348°
2026-05-06 19:43 29.06552 -81.62185 36096 ft 418 kts 348°
2026-05-06 19:44 29.12314 -81.62708 36096 ft 418 kts 348°
2026-05-06 19:44 29.17856 -81.63222 36093 ft 417 kts 347°
2026-05-06 19:45 29.23652 -81.63756 36089 ft 417 kts 348°
2026-05-06 19:45 29.29451 -81.64285 36105 ft 417 kts 347°
2026-05-06 19:46 29.35238 -81.64814 36102 ft 417 kts 347°
2026-05-06 19:46 29.41024 -81.65345 36098 ft 417 kts 347°
2026-05-06 19:47 29.46812 -81.65884 36076 ft 418 kts 347°
2026-05-06 19:47 29.52614 -81.66415 36076 ft 418 kts 347°
2026-05-06 19:48 29.58418 -81.66943 36083 ft 418 kts 347°
2026-05-06 19:48 29.64211 -81.67484 36076 ft 418 kts 347°
2026-05-06 19:49 29.69971 -81.68020 36076 ft 418 kts 347°
2026-05-06 19:49 29.75767 -81.68560 36077 ft 418 kts 347°
2026-05-06 19:50 29.81563 -81.69095 36078 ft 418 kts 347°
2026-05-06 19:50 29.87371 -81.69631 36097 ft 418 kts 347°
2026-05-06 19:51 29.93159 -81.70172 36088 ft 418 kts 347°
2026-05-06 19:51 29.98959 -81.70709 36088 ft 418 kts 347°
2026-05-06 19:52 30.04714 -81.71245 36092 ft 417 kts 347°
2026-05-06 19:52 30.10506 -81.71789 36092 ft 417 kts 346°
2026-05-06 19:53 30.16297 -81.72324 36115 ft 418 kts 346°
2026-05-06 19:53 30.22087 -81.72861 36107 ft 417 kts 346°
2026-05-06 19:54 30.27869 -81.73403 36092 ft 417 kts 346°
2026-05-06 19:54 30.33654 -81.73942 36089 ft 417 kts 346°
2026-05-06 19:55 30.39441 -81.74492 36078 ft 417 kts 346°
2026-05-06 19:55 30.45217 -81.75037 36069 ft 417 kts 346°
2026-05-06 19:56 30.51007 -81.75580 36077 ft 417 kts 346°
2026-05-06 19:56 30.56796 -81.76118 36073 ft 417 kts 346°
2026-05-06 19:57 30.62446 -81.77023 36072 ft 403 kts 334°
2026-05-06 19:57 30.67472 -81.79625 36065 ft 393 kts 326°
2026-05-06 19:58 30.72371 -81.82465 36076 ft 394 kts 326°
2026-05-06 19:58 30.77278 -81.85290 36065 ft 394 kts 326°
2026-05-06 19:59 30.82182 -81.88127 36056 ft 393 kts 326°
2026-05-06 19:59 30.87083 -81.90967 36053 ft 393 kts 326°
2026-05-06 20:00 30.91982 -81.93808 36053 ft 393 kts 326°
2026-05-06 20:00 30.96841 -81.96637 36051 ft 393 kts 326°
2026-05-06 20:01 31.01736 -81.99491 36067 ft 393 kts 326°
2026-05-06 20:01 31.06626 -82.02334 36067 ft 392 kts 326°
2026-05-06 20:02 31.11514 -82.05181 36064 ft 392 kts 326°
2026-05-06 20:02 31.16394 -82.08036 36060 ft 392 kts 326°
2026-05-06 20:03 31.21237 -82.10869 36057 ft 392 kts 326°
2026-05-06 20:03 31.26122 -82.13722 36055 ft 392 kts 326°
2026-05-06 20:04 31.30996 -82.16574 36077 ft 392 kts 325°
2026-05-06 20:04 31.35871 -82.19437 36062 ft 392 kts 325°
2026-05-06 20:05 31.40747 -82.22302 36062 ft 392 kts 325°
2026-05-06 20:05 31.45628 -82.25178 36052 ft 392 kts 325°
2026-05-06 20:06 31.50478 -82.28035 36056 ft 392 kts 325°
2026-05-06 20:06 31.55354 -82.30908 36055 ft 392 kts 326°
2026-05-06 20:07 31.60233 -82.33779 36072 ft 393 kts 325°
2026-05-06 20:07 31.65122 -82.36669 36069 ft 393 kts 325°
2026-05-06 20:08 31.70001 -82.39560 36065 ft 393 kts 325°
2026-05-06 20:08 31.74887 -82.42452 36062 ft 393 kts 324°
2026-05-06 20:09 31.79773 -82.45340 36060 ft 393 kts 325°
2026-05-06 20:09 31.84653 -82.48232 36060 ft 392 kts 324°
2026-05-06 20:10 31.89533 -82.51141 35756 ft 396 kts 324°
2026-05-06 20:10 31.91984 -82.52605 35300 ft 393 kts 325°
2026-05-06 20:10 31.94419 -82.54048 34819 ft 390 kts 325°
2026-05-06 20:11 31.96718 -82.55642 34365 ft 378 kts 317°
2026-05-06 20:11 31.98691 -82.57573 33897 ft 371 kts 313°
2026-05-06 20:11 32.00634 -82.59564 33382 ft 369 kts 313°
2026-05-06 20:11 32.02564 -82.61536 32870 ft 367 kts 313°
2026-05-06 20:12 32.04522 -82.63540 32374 ft 382 kts 314°
2026-05-06 20:12 32.06568 -82.65639 31880 ft 394 kts 314°
2026-05-06 20:12 32.08645 -82.67764 31395 ft 396 kts 314°
2026-05-06 20:12 32.10733 -82.69892 30924 ft 396 kts 314°
2026-05-06 20:13 32.12821 -82.72016 30451 ft 395 kts 314°
2026-05-06 20:13 32.14899 -82.74128 30014 ft 395 kts 315°
2026-05-06 20:13 32.16987 -82.76257 29464 ft 396 kts 314°
2026-05-06 20:13 32.19067 -82.78381 28933 ft 394 kts 314°
2026-05-06 20:14 32.21127 -82.80485 28407 ft 390 kts 314°
2026-05-06 20:14 32.23171 -82.82579 27895 ft 387 kts 314°
2026-05-06 20:14 32.25195 -82.84657 27390 ft 384 kts 314°
2026-05-06 20:14 32.27207 -82.86726 26891 ft 381 kts 314°
2026-05-06 20:15 32.29173 -82.88750 26410 ft 379 kts 314°
2026-05-06 20:15 32.31157 -82.90790 25924 ft 376 kts 314°
2026-05-06 20:15 32.33130 -82.92816 25451 ft 374 kts 314°
2026-05-06 20:15 32.35090 -82.94831 24998 ft 372 kts 314°
2026-05-06 20:16 32.37040 -82.96835 24545 ft 370 kts 314°
2026-05-06 20:16 32.38978 -82.98826 24095 ft 368 kts 314°
2026-05-06 20:16 32.40904 -83.00808 23652 ft 366 kts 313°
2026-05-06 20:16 32.42827 -83.02788 23159 ft 364 kts 313°
2026-05-06 20:17 32.44708 -83.04724 22648 ft 361 kts 313°
2026-05-06 20:17 32.46621 -83.06693 22126 ft 358 kts 313°
2026-05-06 20:17 32.48466 -83.08594 21630 ft 355 kts 313°
2026-05-06 20:17 32.50351 -83.10536 21127 ft 353 kts 313°
2026-05-06 20:18 32.52174 -83.12413 20650 ft 350 kts 313°
2026-05-06 20:18 32.54003 -83.14300 20159 ft 348 kts 313°
2026-05-06 20:18 32.55818 -83.16178 19700 ft 345 kts 313°
2026-05-06 20:18 32.57627 -83.18051 19225 ft 344 kts 313°
2026-05-06 20:19 32.59423 -83.19912 18764 ft 342 kts 313°
2026-05-06 20:19 32.61208 -83.21769 18305 ft 340 kts 313°
2026-05-06 20:19 32.62983 -83.23612 17784 ft 339 kts 313°
2026-05-06 20:19 32.64752 -83.25446 17274 ft 337 kts 313°
2026-05-06 20:20 32.66517 -83.27274 16765 ft 336 kts 313°
2026-05-06 20:20 32.68274 -83.29098 16273 ft 335 kts 313°
2026-05-06 20:20 32.70005 -83.30902 15787 ft 334 kts 313°
2026-05-06 20:20 32.71751 -83.32721 15318 ft 333 kts 313°
2026-05-06 20:21 32.73485 -83.34528 14841 ft 331 kts 313°
2026-05-06 20:21 32.75217 -83.36334 14364 ft 331 kts 313°
2026-05-06 20:21 32.76938 -83.38129 14069 ft 328 kts 313°
2026-05-06 20:21 32.78657 -83.39920 14006 ft 328 kts 313°
2026-05-06 20:22 32.80377 -83.41715 14016 ft 329 kts 313°
2026-05-06 20:22 32.81517 -83.42904 14015 ft 329 kts 313°
2026-05-06 20:22 32.83238 -83.44698 14029 ft 329 kts 313°
2026-05-06 20:22 32.84960 -83.46495 14029 ft 330 kts 313°
2026-05-06 20:23 32.86689 -83.48302 14030 ft 330 kts 313°
2026-05-06 20:23 32.88415 -83.50106 14029 ft 330 kts 313°
2026-05-06 20:23 32.90144 -83.51915 14027 ft 330 kts 313°
2026-05-06 20:23 32.91864 -83.53714 14032 ft 330 kts 313°
2026-05-06 20:24 32.93588 -83.55515 13978 ft 328 kts 313°
2026-05-06 20:24 32.95277 -83.57283 13535 ft 326 kts 312°
2026-05-06 20:24 32.96977 -83.59062 13063 ft 324 kts 313°
2026-05-06 20:24 32.98670 -83.60830 12603 ft 323 kts 313°
2026-05-06 20:25 33.00349 -83.62590 12181 ft 320 kts 312°
2026-05-06 20:25 33.02014 -83.64338 11754 ft 318 kts 312°
2026-05-06 20:25 33.03667 -83.66072 11341 ft 316 kts 313°
2026-05-06 20:25 33.05312 -83.67795 11030 ft 311 kts 313°
2026-05-06 20:26 33.06905 -83.69460 10983 ft 296 kts 312°
2026-05-06 20:26 33.08417 -83.71038 10990 ft 283 kts 312°
2026-05-06 20:26 33.09886 -83.72585 10991 ft 280 kts 311°
2026-05-06 20:26 33.11335 -83.74114 10705 ft 276 kts 311°
2026-05-06 20:27 33.12768 -83.75627 10362 ft 275 kts 311°
2026-05-06 20:27 33.14203 -83.77138 10090 ft 274 kts 311°
2026-05-06 20:27 33.15630 -83.78640 10018 ft 274 kts 311°
2026-05-06 20:27 33.17057 -83.80152 10024 ft 275 kts 311°
2026-05-06 20:28 33.18483 -83.81670 10025 ft 275 kts 311°
2026-05-06 20:28 33.19896 -83.83213 9822 ft 275 kts 310°
2026-05-06 20:28 33.21263 -83.84804 9520 ft 273 kts 309°
2026-05-06 20:28 33.22599 -83.86407 9212 ft 271 kts 309°
2026-05-06 20:29 33.23923 -83.88009 8912 ft 271 kts 309°
2026-05-06 20:29 33.25243 -83.89610 8611 ft 270 kts 309°
2026-05-06 20:29 33.26563 -83.91203 8319 ft 270 kts 309°
2026-05-06 20:29 33.27890 -83.92795 8065 ft 270 kts 309°
2026-05-06 20:30 33.29219 -83.94380 7996 ft 270 kts 309°
2026-05-06 20:30 33.31891 -83.97571 7977 ft 272 kts 309°
2026-05-06 20:30 33.33223 -83.99166 7828 ft 270 kts 309°
2026-05-06 20:31 33.34535 -84.00736 7692 ft 270 kts 310°
2026-05-06 20:31 33.36049 -84.02078 7549 ft 266 kts 327°
2026-05-06 20:31 33.37752 -84.02795 7398 ft 264 kts 343°
2026-05-06 20:31 33.39603 -84.02952 7213 ft 268 kts 353°
2026-05-06 20:32 33.41462 -84.02983 7043 ft 267 kts 353°
2026-05-06 20:32 33.43319 -84.03017 6802 ft 266 kts 353°
2026-05-06 20:32 33.45167 -84.03064 6584 ft 265 kts 353°
2026-05-06 20:32 33.47006 -84.03121 6368 ft 264 kts 353°
2026-05-06 20:33 33.48836 -84.03217 6143 ft 261 kts 347°
2026-05-06 20:33 33.50508 -84.03888 5875 ft 246 kts 323°
2026-05-06 20:33 33.51740 -84.05189 5605 ft 230 kts 304°
2026-05-06 20:33 33.52761 -84.06635 5331 ft 224 kts 304°
2026-05-06 20:34 33.53761 -84.08050 5064 ft 222 kts 304°
2026-05-06 20:34 33.54759 -84.09465 4809 ft 222 kts 304°
2026-05-06 20:34 33.55754 -84.10876 4538 ft 221 kts 304°
2026-05-06 20:34 33.56746 -84.12283 4288 ft 220 kts 304°
2026-05-06 20:35 33.57732 -84.13685 4098 ft 220 kts 304°
2026-05-06 20:35 33.58716 -84.15084 4035 ft 219 kts 303°
2026-05-06 20:35 33.59692 -84.16471 4042 ft 219 kts 303°
2026-05-06 20:35 33.60674 -84.17869 4040 ft 218 kts 304°
2026-05-06 20:36 33.61665 -84.19278 4036 ft 218 kts 304°
2026-05-06 20:36 33.62605 -84.20694 4035 ft 215 kts 296°
2026-05-06 20:36 33.63117 -84.22315 4009 ft 209 kts 276°
2026-05-06 20:36 33.63175 -84.23974 3820 ft 188 kts 266°
2026-05-06 20:37 33.63175 -84.25489 3626 ft 177 kts 265°
2026-05-06 20:37 33.63174 -84.26943 3407 ft 174 kts 265°
2026-05-06 20:37 33.63174 -84.28400 3174 ft 176 kts 265°
2026-05-06 20:37 33.63175 -84.29866 2954 ft 175 kts 265°
2026-05-06 20:38 33.63177 -84.31325 2718 ft 170 kts 266°
2026-05-06 20:38 33.63180 -84.32651 2515 ft 153 kts 265°
2026-05-06 20:38 33.63180 -84.33904 2313 ft 147 kts 265°
2026-05-06 20:38 33.63180 -84.35142 2125 ft 147 kts 263°
2026-05-06 20:39 33.63181 -84.36356 1922 ft 145 kts 267°
2026-05-06 20:39 33.63181 -84.37564 1736 ft 143 kts 266°
2026-05-06 20:39 33.63182 -84.38748 1547 ft 143 kts 262°
2026-05-06 20:39 33.63181 -84.39968 1354 ft 147 kts 266°
2026-05-06 20:40 33.63186 -84.41188 1164 ft 146 kts 266°
2026-05-06 20:40 33.63189 -84.42396 1019 ft 143 kts 265°
2026-05-06 20:40 33.63178 -84.43409 1008 ft 91 kts 270°
2026-05-06 20:40 33.63186 -84.43961 1004 ft 49 kts 275°
2026-05-06 20:41 33.63238 -84.44175 1006 ft 15 kts 296°
2026-05-06 20:41 33.63298 -84.44259 1006 ft 13 kts 351°
2026-05-06 20:41 33.63356 -84.44236 1006 ft 11 kts 39°
2026-05-06 20:41 33.63377 -84.44213 1006 ft 0 kts 38°
2026-05-06 20:43 33.63380 -84.44211 1006 ft 3 kts 38°
2026-05-06 20:43 33.63435 -84.44199 1006 ft 13 kts
2026-05-06 20:43 33.63555 -84.44194 1007 ft 19 kts 359°
2026-05-06 20:44 33.63670 -84.44148 1007 ft 17 kts 41°
2026-05-06 20:44 33.63764 -84.44118 1006 ft 12 kts 353°
2026-05-06 20:44 33.63835 -84.44142 1006 ft 10 kts 297°
2026-05-06 20:44 33.63840 -84.44189 1006 ft 4 kts 272°
2026-05-06 20:45 33.63840 -84.44196 1006 ft 0 kts 272°